カタログに戻る

STARLINK-3595

運用中通信VLEO
NORAD 51894·PAYLOAD·🇺🇸 United States

打ち上げ Mar 3, 2022 から Cape Canaveral Space Force Station

Loading…

次のパス (今後24時間)

TLE

最新Source: CelesTrak SupGP

元期: Sep 15, 2026, 01:46 UTC

1 51894C 22022AU  26258.07409722 -.00022877  00000+0 -67589-3 0  2582
2 51894  53.1567 213.4353 0001551  94.9580  85.8738 15.34402917    10

AllMySatでSTARLINK-3595をリアルタイム追跡

Download on the App Store